Location: Bruch
(44.2051°N, 0.4120°E)
Time: 03:18:12
(UTC+00:00)

Cosmos 2263 Rocket - Pass Details

Date: 29 November 2020
Orbit: 823 x 848 km, 71.0° (Epoch: 24 January)

Event Time Altitude Azimuth Distance (km) Brightness Sun altitude
Exits shadow 04:42:43 41° 349° (N) 1,216 2.8 -26.1°
Drops below altitude 10° 04:46:42 10° 17° (NNE) 2,481 4.7 -25.4°
Sets 04:49:14 0° 23° (NNE) 3,421 5.6 -24.9°
